Location: Bremen
(53.0793°N, 8.8017°E)
Time: 12:12:08
(UTC+01:00)

Transit 2A - Pass Details

Date: 30 November 2021
Orbit: 591 x 967 km, 66.7° (Epoch: 23 January)

Event Time Altitude Azimuth Distance (km) Brightness Sun altitude
Exits shadow 05:30:29 22° 338° (NNW) 1,926 7.8 -23.5°
Maximum altitude 05:31:42 24° 355° (N) 1,878 7.9 -23.3°
Drops below altitude 10° 05:36:45 10° 47° (NE) 2,714 9.3 -22.6°
Sets 05:39:55 0° 61° (ENE) 3,662 10.4 -22.1°
